This is the latest recevied weather packets stored in our database for station/object DO1TOB-60. If no packets are shown the sender has not sent any weather packets the latest 1 day(s).
| Time | Temp. | Humidity | Pressure | Rain* | Wind** | Luminosity | Snow |
|---|---|---|---|---|---|---|---|
| 1777991538 | 14.44° C | 92% | 1008.4 hPa | 0 mm | 0.89 m/s, 355° | - | - |
| 1777991477 | 14.44° C | 92% | 1008.4 hPa | 0 mm | 2.24 m/s, 340° | - | - |
| 1777991417 | 14.44° C | 92% | 1008.4 hPa | 0.25 mm | 1.79 m/s, 336° | - | - |
| 1777991358 | 14.44° C | 92% | 1008.4 hPa | 0.25 mm | 0.89 m/s, 331° | - | - |
| 1777991297 | 14.44° C | 92% | 1008.4 hPa | 0.25 mm | 1.79 m/s, 339° | - | - |
| 1777991237 | 14.44° C | 93% | 1008.4 hPa | 0.25 mm | 0.89 m/s, 333° | - | - |
| 1777991167 | 14.44° C | 93% | 1008.4 hPa | 0.51 mm | 1.79 m/s, 333° | - | - |
| 1777991108 | 14.44° C | 93% | 1008.4 hPa | 1.78 mm | 0.89 m/s, 346° | - | - |
| 1777991047 | 14.44° C | 93% | 1008.4 hPa | 2.29 mm | 3.58 m/s, 330° | - | - |
| 1777990987 | 14.44° C | 93% | 1008.4 hPa | 2.29 mm | 2.24 m/s, 342° | - | - |
| 1777990927 | 14.44° C | 93% | 1008.5 hPa | 2.29 mm | 3.13 m/s, 336° | - | - |
| 1777990867 | 14.44° C | 93% | 1008.4 hPa | 2.29 mm | 3.58 m/s, 335° | - | - |
| 1777990807 | 14.44° C | 93% | 1008.5 hPa | 2.29 mm | 2.24 m/s, 339° | - | - |
| 1777990737 | 14.44° C | 93% | 1008.5 hPa | 2.29 mm | 3.13 m/s, 333° | - | - |
| 1777990677 | 14.44° C | 93% | 1008.5 hPa | 2.29 mm | 2.24 m/s, 343° | - | - |
| 1777990617 | 14.44° C | 93% | 1008.5 hPa | 2.29 mm | 2.68 m/s, 329° | - | - |
| 1777990557 | 14.44° C | 93% | 1008.6 hPa | 2.29 mm | 2.24 m/s, 328° | - | - |
| 1777990497 | 14.44° C | 93% | 1008.6 hPa | 2.29 mm | 3.13 m/s, 335° | - | - |
| 1777990438 | 14.44° C | 93% | 1008.6 hPa | 2.29 mm | 2.68 m/s, 327° | - | - |
| 1777990381 | 14.44° C | 93% | 1008.6 hPa | 2.29 mm | 3.58 m/s, 333° | - | - |
| 1777990307 | 14.44° C | 93% | 1008.6 hPa | 2.29 mm | 2.24 m/s, 329° | - | - |
| 1777990247 | 14.44° C | 93% | 1008.6 hPa | 2.29 mm | 1.34 m/s, 355° | - | - |
| 1777990187 | 14.44° C | 93% | 1008.6 hPa | 2.29 mm | 1.79 m/s, 325° | - | - |
| 1777990127 | 14.44° C | 93% | 1008.6 hPa | 2.29 mm | 2.24 m/s, 327° | - | - |
| 1777990067 | 14.44° C | 92% | 1008.6 hPa | 2.29 mm | 1.34 m/s, 332° | - | - |
* Rain latest hour (hover to see other rain measurements)
** Current wind speed in m/s (hover to see current wind gust speed)